| time (UTC) | temp F | wind direction | speed MPH | gust MPH | rain 1hr in | rain 24hr in | rain mn in | humidity % | barometer mb |
| 20260505060507 | 53 | 14 | 0.0 | 0.0 | 0.00 | 0.04 | 0.04 | 99 | 1010.7 |
| 20260505060003 | 53 | 14 | 0.0 | 0.0 | 0.00 | 0.04 | 0.04 | 99 | 1010.6 |
| 20260505055458 | 53 | 13 | 0.0 | 0.0 | 0.00 | 0.04 | 0.04 | 99 | 1010.7 |
| 20260505054955 | 53 | 14 | 0.0 | 0.0 | 0.00 | 0.04 | 0.04 | 99 | 1010.9 |
| 20260505054453 | 53 | 14 | 0.0 | 0.0 | 0.00 | 0.04 | 0.04 | 99 | 1010.9 |
| 20260505053950 | 53 | 13 | 0.0 | 0.0 | 0.00 | 0.04 | 0.04 | 99 | 1010.9 |
| 20260505053447 | 53 | 14 | 0.0 | 0.0 | 0.00 | 0.04 | 0.04 | 99 | 1010.7 |
| 20260505052944 | 53 | 14 | 0.0 | 0.0 | 0.00 | 0.04 | 0.04 | 99 | 1010.8 |
| 20260505052441 | 53 | 13 | 0.0 | 0.0 | 0.00 | 0.04 | 0.04 | 99 | 1010.9 |
| 20260505051938 | 53 | 13 | 0.0 | 0.0 | 0.00 | 0.04 | 0.04 | 99 | 1010.9 |
| 20260505051435 | 53 | 14 | 0.0 | 0.0 | 0.00 | 0.04 | 0.04 | 99 | 1010.7 |
| 20260505050933 | 53 | 13 | 0.0 | 0.0 | 0.00 | 0.04 | 0.04 | 99 | 1010.8 |
| 20260505050432 | 53 | 13 | 0.0 | 0.0 | 0.00 | 0.04 | 0.04 | 99 | 1010.6 |
| 20260505041359 | 53 | 13 | 0.0 | 0.0 | 0.00 | 0.04 | 0.04 | 99 | 1010.3 |
| 20260505040856 | 53 | 14 | 0.0 | 0.0 | 0.00 | 0.04 | 0.04 | 99 | 1010.4 |
| 20260505040354 | 54 | 14 | 0.0 | 0.0 | 0.00 | 0.04 | 0.04 | 99 | 1010.3 |
| 20260505035850 | 54 | 14 | 0.0 | 0.0 | 0.00 | 0.04 | 0.04 | 98 | 1010.3 |
| 20260505035346 | 54 | 14 | 0.0 | 0.0 | 0.00 | 0.04 | 0.04 | 98 | 1010.4 |
| 20260505034844 | 54 | 14 | 0.0 | 0.0 | 0.00 | 0.04 | 0.04 | 98 | 1010.3 |
| 20260505034340 | 54 | 13 | 0.0 | 0.0 | 0.00 | 0.04 | 0.04 | 98 | 1010.1 |
| 20260505033837 | 54 | 13 | 0.0 | 0.0 | 0.00 | 0.04 | 0.04 | 98 | 1010.0 |
| 20260505033334 | 54 | 13 | 0.0 | 0.0 | 0.00 | 0.04 | 0.04 | 98 | 1010.2 |
| 20260505032832 | 54 | 15 | 0.0 | 0.0 | 0.00 | 0.04 | 0.04 | 98 | 1010.1 |
| 20260505032328 | 54 | 13 | 0.0 | 0.0 | 0.00 | 0.04 | 0.04 | 98 | 1010.1 |
| 20260505031826 | 54 | 15 | 0.0 | 0.0 | 0.00 | 0.04 | 0.04 | 98 | 1009.8 |
| 20260505031322 | 54 | 9 | 0.0 | 0.0 | 0.00 | 0.04 | 0.04 | 98 | 1009.9 |
| 20260505030819 | 54 | 9 | 0.0 | 0.0 | 0.00 | 0.04 | 0.04 | 97 | 1009.8 |
| 20260505030315 | 54 | 9 | 0.0 | 0.0 | 0.00 | 0.04 | 0.04 | 97 | 1009.8 |
| 20260505025811 | 54 | 9 | 0.0 | 0.0 | 0.00 | 0.04 | 0.04 | 96 | 1009.9 |
| 20260505025309 | 55 | 9 | 0.0 | 0.0 | 0.00 | 0.04 | 0.04 | 95 | 1009.9 |
| 20260505024807 | 54 | 5 | 0.0 | 0.0 | 0.00 | 0.04 | 0.04 | 95 | 1009.7 |
| 20260505024304 | 54 | 5 | 0.0 | 0.0 | 0.00 | 0.04 | 0.04 | 95 | 1009.7 |
| 20260505023801 | 54 | 5 | 0.0 | 0.0 | 0.00 | 0.04 | 0.04 | 95 | 1009.7 |
| 20260505023258 | 54 | 0 | 0.0 | 0.0 | 0.00 | 0.04 | 0.04 | 95 | 1009.7 |
| 20260505022755 | 54 | 8 | 0.0 | 0.0 | 0.00 | 0.04 | 0.04 | 96 | 1009.6 |
| 20260505022252 | 55 | 8 | 0.0 | 0.0 | 0.00 | 0.04 | 0.04 | 96 | 1009.7 |
| 20260505021749 | 55 | 8 | 0.0 | 0.0 | 0.00 | 0.04 | 0.04 | 96 | 1009.7 |
| 20260505021246 | 55 | 9 | 0.0 | 0.0 | 0.00 | 0.04 | 0.04 | 95 | 1009.9 |
| 20260505020742 | 55 | 7 | 0.0 | 0.0 | 0.00 | 0.04 | 0.04 | 90 | 1009.9 |
| 20260505020237 | 55 | 7 | 0.0 | 0.0 | 0.00 | 0.04 | 0.04 | 91 | 1009.9 |
| 20260505015735 | 55 | 2 | 0.0 | 0.0 | 0.00 | 0.04 | 0.04 | 90 | 1009.9 |
| 20260505015231 | 55 | 353 | 0.0 | 0.0 | 0.00 | 0.04 | 0.04 | 89 | 1010.0 |
| 20260505014729 | 55 | 352 | 0.0 | 0.0 | 0.00 | 0.04 | 0.04 | 89 | 1009.8 |
| 20260505014226 | 55 | 353 | 0.0 | 0.0 | 0.00 | 0.04 | 0.04 | 91 | 1010.1 |
| 20260505013722 | 55 | 353 | 0.0 | 0.0 | 0.00 | 0.04 | 0.04 | 91 | 1010.0 |
| 20260505013220 | 55 | 352 | 0.0 | 0.0 | 0.00 | 0.04 | 0.04 | 90 | 1010.1 |
| 20260505012718 | 56 | 352 | 0.0 | 0.0 | 0.00 | 0.04 | 0.04 | 89 | 1009.7 |
| 20260505012215 | 56 | 344 | 1.0 | 1.0 | 0.00 | 0.04 | 0.04 | 89 | 1010.0 |
| 20260505011710 | 56 | 345 | 1.0 | 1.0 | 0.00 | 0.04 | 0.04 | 90 | 1010.0 |
| 20260505011208 | 56 | 352 | 0.0 | 1.0 | 0.00 | 0.04 | 0.04 | 89 | 1010.1 |
| 20260505010703 | 56 | 350 | 0.0 | 0.0 | 0.00 | 0.04 | 0.04 | 89 | 1010.0 |
| 20260505010200 | 56 | 347 | 0.0 | 0.0 | 0.00 | 0.04 | 0.04 | 89 | 1010.3 |
| 20260505005656 | 56 | 347 | 0.0 | 0.0 | 0.00 | 0.04 | 0.04 | 89 | 1010.0 |
| 20260505005153 | 56 | 348 | 0.0 | 0.0 | 0.00 | 0.04 | 0.04 | 88 | 1010.1 |
| 20260505004650 | 56 | 345 | 1.0 | 2.0 | 0.00 | 0.04 | 0.04 | 88 | 1010.1 |
| 20260505004147 | 56 | 348 | 0.0 | 0.0 | 0.00 | 0.04 | 0.04 | 88 | 1010.2 |
| 20260505003644 | 56 | 347 | 0.0 | 0.0 | 0.00 | 0.04 | 0.04 | 88 | 1010.0 |
| 20260505003142 | 56 | 333 | 1.0 | 1.0 | 0.00 | 0.04 | 0.04 | 88 | 1010.0 |
| 20260505002638 | 56 | 350 | 0.0 | 0.0 | 0.00 | 0.04 | 0.04 | 87 | 1010.1 |
| 20260505002136 | 56 | 345 | 1.0 | 1.0 | 0.00 | 0.04 | 0.04 | 88 | 1010.1 |
| 20260505001633 | 56 | 349 | 0.0 | 0.0 | 0.00 | 0.04 | 0.04 | 90 | 1009.9 |
| 20260505001130 | 56 | 351 | 0.0 | 0.0 | 0.00 | 0.04 | 0.04 | 90 | 1009.9 |
| 20260505000627 | 56 | 354 | 0.0 | 0.0 | 0.00 | 0.04 | 0.04 | 87 | 1010.2 |
| 20260505000125 | 56 | 346 | 0.0 | 0.0 | 0.00 | 0.04 | 0.04 | 87 | 1010.0 |
| 20260504235621 | 56 | 346 | 0.0 | 0.0 | 0.00 | 0.04 | 0.04 | 88 | 1009.9 |
| 20260504235118 | 56 | 347 | 0.0 | 0.0 | 0.00 | 0.04 | 0.04 | 88 | 1009.9 |
| 20260504234615 | 56 | 346 | 0.0 | 1.0 | 0.00 | 0.04 | 0.04 | 86 | 1009.9 |
| 20260504234112 | 57 | 359 | 0.0 | 0.0 | 0.00 | 0.04 | 0.04 | 88 | 1009.8 |
| 20260504233608 | 57 | 359 | 0.0 | 0.0 | 0.00 | 0.04 | 0.04 | 87 | 1010.1 |
| 20260504233104 | 57 | 359 | 0.0 | 0.0 | 0.00 | 0.04 | 0.04 | 86 | 1009.8 |
| 20260504232602 | 57 | 0 | 0.0 | 0.0 | 0.00 | 0.04 | 0.04 | 86 | 1009.8 |
| 20260504232059 | 56 | 350 | 0.0 | 0.0 | 0.00 | 0.04 | 0.04 | 87 | 1010.0 |
| 20260504231555 | 56 | 355 | 0.0 | 1.0 | 0.00 | 0.04 | 0.04 | 88 | 1009.9 |
| 20260504231051 | 56 | 350 | 0.0 | 0.0 | 0.00 | 0.04 | 0.04 | 86 | 1009.9 |
| 20260504230547 | 56 | 342 | 1.0 | 1.0 | 0.00 | 0.04 | 0.04 | 87 | 1010.0 |
| 20260504230047 | 56 | 355 | 0.0 | 0.0 | 0.00 | 0.04 | 0.04 | 88 | 1009.8 |
| 20260504225543 | 56 | 348 | 1.0 | 1.0 | 0.00 | 0.04 | 0.04 | 87 | 1009.9 |
| 20260504225041 | 56 | 352 | 0.0 | 0.0 | 0.00 | 0.04 | 0.04 | 87 | 1010.0 |
| 20260504224537 | 56 | 350 | 0.0 | 0.0 | 0.00 | 0.04 | 0.04 | 87 | 1010.1 |
| 20260504224035 | 56 | 351 | 0.0 | 0.0 | 0.00 | 0.04 | 0.04 | 86 | 1010.0 |
| 20260504223531 | 56 | 351 | 1.0 | 1.0 | 0.00 | 0.04 | 0.04 | 87 | 1010.3 |
| 20260504223027 | 56 | 349 | 1.0 | 1.0 | 0.00 | 0.04 | 0.04 | 88 | 1010.4 |
| 20260504222524 | 56 | 348 | 1.0 | 1.0 | 0.00 | 0.04 | 0.04 | 90 | 1010.3 |
| 20260504222021 | 56 | 352 | 0.0 | 1.0 | 0.00 | 0.04 | 0.04 | 89 | 1010.6 |
| 20260504221518 | 56 | 349 | 2.0 | 2.0 | 0.00 | 0.04 | 0.04 | 88 | 1010.7 |
| 20260504221015 | 56 | 341 | 1.0 | 1.0 | 0.00 | 0.04 | 0.04 | 87 | 1010.6 |
| 20260504220512 | 56 | 351 | 0.0 | 0.0 | 0.00 | 0.04 | 0.04 | 87 | 1010.9 |
| 20260504220009 | 56 | 347 | 1.0 | 1.0 | 0.00 | 0.04 | 0.04 | 88 | 1010.8 |
| 20260504215505 | 56 | 353 | 0.0 | 0.0 | 0.00 | 0.04 | 0.04 | 89 | 1010.7 |
| 20260504215003 | 56 | 348 | 0.0 | 0.0 | 0.00 | 0.04 | 0.04 | 86 | 1010.6 |
| 20260504214458 | 56 | 348 | 0.0 | 1.0 | 0.00 | 0.04 | 0.04 | 88 | 1010.7 |
| 20260504213955 | 56 | 347 | 0.0 | 0.0 | 0.00 | 0.04 | 0.04 | 89 | 1010.8 |
| 20260504213451 | 56 | 349 | 0.0 | 0.0 | 0.00 | 0.04 | 0.04 | 88 | 1010.8 |
| 20260504212949 | 56 | 344 | 1.0 | 1.0 | 0.00 | 0.04 | 0.04 | 88 | 1011.0 |
| 20260504212444 | 56 | 346 | 1.0 | 1.0 | 0.00 | 0.04 | 0.04 | 88 | 1010.8 |
| 20260504211942 | 56 | 351 | 0.0 | 1.0 | 0.00 | 0.04 | 0.04 | 89 | 1010.5 |
| 20260504211438 | 56 | 340 | 2.0 | 2.0 | 0.00 | 0.04 | 0.04 | 88 | 1010.7 |
| 20260504210936 | 57 | 346 | 1.0 | 2.0 | 0.00 | 0.04 | 0.04 | 89 | 1010.7 |
| 20260504210433 | 57 | 348 | 0.0 | 1.0 | 0.00 | 0.04 | 0.04 | 88 | 1010.5 |
| 20260504205930 | 57 | 337 | 2.0 | 2.0 | 0.00 | 0.04 | 0.04 | 87 | 1010.8 |
| 20260504205427 | 57 | 336 | 1.0 | 1.0 | 0.00 | 0.04 | 0.04 | 87 | 1010.6 |
| 20260504204925 | 57 | 353 | 0.0 | 1.0 | 0.00 | 0.04 | 0.04 | 87 | 1010.4 |
| 20260504204423 | 57 | 344 | 1.0 | 1.0 | 0.00 | 0.04 | 0.04 | 88 | 1010.7 |
| 20260504203922 | 57 | 352 | 1.0 | 1.0 | 0.00 | 0.04 | 0.04 | 86 | 1010.7 |
| 20260504203420 | 57 | 354 | 0.0 | 0.0 | 0.00 | 0.04 | 0.04 | 87 | 1010.8 |
| 20260504202915 | 57 | 319 | 0.0 | 1.0 | 0.00 | 0.04 | 0.04 | 85 | 1010.7 |
| 20260504202412 | 57 | 23 | 0.0 | 0.0 | 0.00 | 0.04 | 0.04 | 85 | 1010.8 |
| 20260504201909 | 57 | 25 | 0.0 | 0.0 | 0.00 | 0.04 | 0.04 | 90 | 1010.9 |
| 20260504201406 | 57 | 26 | 1.0 | 1.0 | 0.00 | 0.04 | 0.04 | 87 | 1010.8 |
| 20260504200904 | 57 | 335 | 1.0 | 1.0 | 0.00 | 0.04 | 0.04 | 88 | 1010.9 |
| 20260504200400 | 57 | 5 | 0.0 | 0.0 | 0.00 | 0.04 | 0.04 | 93 | 1010.9 |
| 20260504195857 | 57 | 352 | 0.0 | 0.0 | 0.00 | 0.04 | 0.04 | 92 | 1011.0 |
| 20260504195352 | 56 | 352 | 0.0 | 0.0 | 0.00 | 0.04 | 0.04 | 92 | 1011.0 |
| 20260504194849 | 56 | 352 | 0.0 | 0.0 | 0.00 | 0.04 | 0.04 | 91 | 1011.0 |
| 20260504194345 | 56 | 345 | 0.0 | 0.0 | 0.00 | 0.04 | 0.04 | 91 | 1011.1 |
| 20260504193841 | 56 | 347 | 0.0 | 1.0 | 0.00 | 0.04 | 0.04 | 91 | 1011.0 |
| 20260504193339 | 56 | 354 | 0.0 | 0.0 | 0.00 | 0.04 | 0.04 | 93 | 1011.3 |
| 20260504192838 | 56 | 0 | 0.0 | 0.0 | 0.00 | 0.04 | 0.04 | 95 | 1011.2 |
| 20260504192335 | 56 | 2 | 0.0 | 0.0 | 0.00 | 0.04 | 0.04 | 96 | 1011.0 |
| 20260504191833 | 56 | 349 | 0.0 | 0.0 | 0.00 | 0.04 | 0.04 | 95 | 1011.0 |
| 20260504191331 | 56 | 5 | 0.0 | 0.0 | 0.00 | 0.04 | 0.04 | 94 | 1011.1 |
| 20260504190826 | 55 | 350 | 0.0 | 0.0 | 0.00 | 0.04 | 0.04 | 92 | 1010.8 |
| 20260504190322 | 55 | 351 | 1.0 | 1.0 | 0.00 | 0.04 | 0.04 | 92 | 1011.2 |
| 20260504185819 | 55 | 336 | 1.0 | 2.0 | 0.00 | 0.04 | 0.04 | 93 | 1011.0 |
| 20260504185316 | 55 | 349 | 0.0 | 0.0 | 0.00 | 0.04 | 0.04 | 94 | 1011.1 |
| 20260504184812 | 55 | 348 | 0.0 | 0.0 | 0.00 | 0.04 | 0.04 | 93 | 1011.1 |
| 20260504184308 | 55 | 333 | 2.0 | 2.0 | 0.00 | 0.04 | 0.04 | 93 | 1011.0 |
| 20260504183804 | 55 | 341 | 2.0 | 2.0 | 0.00 | 0.04 | 0.04 | 93 | 1011.1 |
| 20260504183301 | 55 | 339 | 2.0 | 2.0 | 0.00 | 0.04 | 0.04 | 94 | 1011.4 |
| 20260504182759 | 55 | 357 | 1.0 | 1.0 | 0.00 | 0.04 | 0.04 | 94 | 1010.9 |
| 20260504182256 | 55 | 358 | 0.0 | 0.0 | 0.00 | 0.04 | 0.04 | 95 | 1011.1 |
| 20260504181753 | 55 | 358 | 0.0 | 0.0 | 0.00 | 0.04 | 0.04 | 94 | 1010.8 |
| 20260504181250 | 55 | 358 | 0.0 | 0.0 | 0.00 | 0.04 | 0.04 | 93 | 1010.9 |
| 20260504180750 | 55 | 358 | 0.0 | 0.0 | 0.00 | 0.04 | 0.04 | 93 | 1011.0 |
| 20260504180248 | 55 | 358 | 0.0 | 0.0 | 0.00 | 0.04 | 0.04 | 92 | 1010.7 |
| 20260504175745 | 55 | 357 | 1.0 | 1.0 | 0.00 | 0.04 | 0.04 | 92 | 1010.7 |
| 20260504175242 | 56 | 19 | 0.0 | 0.0 | 0.00 | 0.04 | 0.04 | 95 | 1010.7 |
| 20260504174739 | 55 | 19 | 0.0 | 0.0 | 0.00 | 0.04 | 0.04 | 95 | 1010.7 |
| 20260504174237 | 55 | 19 | 0.0 | 0.0 | 0.00 | 0.04 | 0.04 | 94 | 1010.5 |
| 20260504173733 | 55 | 19 | 0.0 | 0.0 | 0.00 | 0.04 | 0.04 | 95 | 1010.9 |
| 20260504173231 | 55 | 19 | 0.0 | 0.0 | 0.00 | 0.04 | 0.04 | 97 | 1010.6 |
| 20260504172727 | 54 | 19 | 0.0 | 0.0 | 0.00 | 0.04 | 0.04 | 98 | 1010.8 |
| 20260504172224 | 54 | 19 | 0.0 | 0.0 | 0.00 | 0.04 | 0.04 | 99 | 1011.0 |
| 20260504171720 | 54 | 19 | 0.0 | 0.0 | 0.00 | 0.04 | 0.04 | 99 | 1010.7 |
| 20260504171217 | 54 | 20 | 0.0 | 0.0 | 0.00 | 0.04 | 0.04 | 99 | 1010.7 |
| 20260504170714 | 54 | 19 | 0.0 | 0.0 | 0.00 | 0.04 | 0.04 | 99 | 1010.7 |
| 20260504170212 | 54 | 20 | 0.0 | 0.0 | 0.00 | 0.04 | 0.04 | 99 | 1010.8 |
| 20260504160130 | 53 | 8 | 0.0 | 0.0 | 0.00 | 0.04 | 0.04 | 99 | 1010.3 |
| 20260504151057 | 52 | 12 | 0.0 | 0.0 | 0.00 | 0.04 | 0.04 | 99 | 1009.6 |
| 20260504150555 | 52 | 16 | 0.0 | 0.0 | 0.00 | 0.04 | 0.04 | 99 | 1009.5 |
| 20260504141021 | 51 | 29 | 0.0 | 0.0 | 0.00 | 0.04 | 0.04 | 99 | 1009.7 |
| 20260504140517 | 51 | 29 | 0.0 | 0.0 | 0.00 | 0.04 | 0.04 | 99 | 1009.7 |
| 20260504130442 | 50 | 25 | 0.0 | 0.0 | 0.00 | 0.04 | 0.04 | 99 | 1009.4 |
| 20260504110328 | 51 | 11 | 0.0 | 0.0 | 0.00 | 0.04 | 0.04 | 99 | 1009.3 |
| 20260504100246 | 51 | 30 | 0.0 | 0.0 | 0.00 | 0.04 | 0.04 | 99 | 1009.4 |
| 20260504081639 | 51 | 347 | 0.0 | 0.0 | 0.00 | 0.03 | 0.03 | 99 | 1010.4 |
| 20260504081135 | 51 | 337 | 1.0 | 1.0 | 0.00 | 0.03 | 0.03 | 99 | 1010.5 |
| 20260504080632 | 51 | 34 | 1.0 | 1.0 | 0.00 | 0.03 | 0.03 | 99 | 1010.4 |
| 20260504080128 | 51 | 28 | 0.0 | 0.0 | 0.00 | 0.03 | 0.03 | 99 | 1010.1 |